Regional Weather Roundup
Issued by NWS

Home | Current Version | Previous Version | Graphics & Text | Print | Product List | Glossary On
Versions: 1 2 3 4 5 6 7 8 9 10 11 12 13 14 15 16 17 18 19 20 21 22 23 24 25 26 27 28 29 30 31 32 33 34 35 36 37 38 39 40 41 42 43 44 45 46 47 48 49 50
000
ASUS43 KIND 091609
RWRIN

WEATHER ROUNDUP FOR INDIANA
NATIONAL WEATHER SERVICE INDIANAPOLIS IN
1200 PM EDT WED JUL 09 2014

NOTE: "FAIR" INDICATES FEW OR NO CLOUDS BELOW 12,000 FEET WITH NO
SIGNIFICANT WEATHER AND/OR OBSTRUCTIONS TO VISIBILITY.

* - STATION DOES NOT REPORT WEATHER SUCH AS PRECIPITATION OR FOG.

+ - STATION NOT QUALITY CONTROLLED BY THE NATIONAL WEATHER SERVICE.
    USE DATA WITH CAUTION...ESPECIALLY DEWPOINT AND RELATIVE
    HUMIDITY OBSERVATIONS.

INZ001>003-010>013-019-020-091700-
NORTHWEST INDIANA

CITY           SKY/WX    TMP DP  RH WIND       PRES   REMARKS
GARY /AIRPORT/ MOSUNNY   72  63  73 NE7       29.94
KNOX *+        PTSUNNY   74  60  61 W6        29.93S
LA PORTE +     MOSUNNY   70  58  64 N12G21    29.96R
MICHIGAN CITY+ MOSUNNY   70  55  60 NW7       29.96R
MONTICELLO +   MOSUNNY   75  62  63 NW8G16    29.94R
RENSSELAER +   SUNNY     73  63  68 W10       29.95R
VALPARAISO     MOSUNNY   73  58  59 N7        29.95R

$$

LMZ046-743>745-091700-
SOUTHERN LAKE MICHIGAN

STATION/POSITION TIME  TEMP WIND        PRES
                       AIR  DIR/SP/G
                 (UTC) (F)  (DEG/KT/KT) (MB)
MICHIGAN CITY    1600   66  350/  7/  8   N/A

$$

INZ004-005-014>016-021>024-091700-
NORTH CENTRAL INDIANA

CITY           SKY/WX    TMP DP  RH WIND       PRES   REMARKS
ELKHART        MOSUNNY   72  57  60 NW12G17   29.94R
GOSHEN         SUNNY     75  59  57 NW13G18   29.93R
LOGANSPORT +   SUNNY     77  59  53 W9        29.95S
PERU/GRISSOM   SUNNY     76  65  69 W10       29.94R
ROCHESTER +    MOSUNNY   77  61  57 N6        29.94R
SOUTH BEND     SUNNY     73  56  54 NW12      29.95R
WARSAW +       PTSUNNY   75  59  57 W9        29.94R

$$

INZ006>009-017-018-025>027-091700-
NORTHEAST INDIANA

CITY           SKY/WX    TMP DP  RH WIND       PRES   REMARKS
ANGOLA *+      SUNNY     75  59  57 NW13      29.92R
AUBURN +       MOSUNNY   75  55  50 W9        29.93S
FORT WAYNE     PTSUNNY   76  60  57 SW7       29.93R
HUNTINGTON +   PTSUNNY   75  60  58 W10G17    29.93S

$$

INZ028-029-035-036-043>045-051>053-091700-
WEST CENTRAL INDIANA

CITY           SKY/WX    TMP DP  RH WIND       PRES   REMARKS
GREENCASTLE +  PTSUNNY   75  64  69 S6        29.98S
LAFAYETTE      SUNNY     76  58  53 NW13      29.95R
TERRE HAUTE    CLOUDY    76  64  66 SW7       29.98R

$$

INZ030>032-037>040-046>048-054>057-064-065-091700-
CENTRAL INDIANA

CITY           SKY/WX    TMP DP  RH WIND       PRES   REMARKS
ANDERSON       PTSUNNY   75  59  57 SW12      29.97R
CP ATTERBURY + SUNNY     79  55  44 W6        29.98S
GREENWOOD *+   PTSUNNY   81  63  54 SW7G16    29.98
INDIANAPOLIS   MOSUNNY   78  62  57 W15       29.96S
-EAGLE CREEK   PTSUNNY   77  60  55 VRB7G16   29.96R
KOKOMO *+      SUNNY     77  61  57 NW13      29.95R
MARION +       PTSUNNY   75  60  59 W8        29.96R
MT COMFORT *+  MOSUNNY   77  61  57 W8G18     29.97S
SHELBYVILLE    SUNNY     80  60  50 W12       29.97R
ZIONSVILLE +   SUNNY     77  61  58 W7        29.97R

$$

INZ033-034-041-042-049-050-058-059-091700-
EAST CENTRAL INDIANA

CITY           SKY/WX    TMP DP  RH WIND       PRES   REMARKS
MUNCIE         PTSUNNY   76  60  57 W13       29.95R

$$

INZ060-061-067>069-081>083-085>088-091700-
SOUTHWEST INDIANA

CITY           SKY/WX    TMP DP  RH WIND       PRES   REMARKS
EVANSVILLE     SUNNY     81  59  47 NW7G16    30.01S
HUNTINGBURG *+ PTSUNNY   81  63  54 W8        30.01S
WASHINGTON +   SUNNY     79  64  59 W8        29.99S

$$

INZ062-063-066-070>080-084-089>092-091700-
SOUTH CENTRAL AND SOUTHEAST INDIANA

CITY           SKY/WX    TMP DP  RH WIND       PRES   REMARKS
BLOOMINGTON    MOSUNNY   78  60  53 W7        29.99R
NORTH VERNON + MOSUNNY   77  63  61 W8        29.99

$$




USA.gov is the U.S. government's official web portal to all federal, state and local government web resources and services.